User: anonymous   Login
Location: Monroe
(41.9160°N, 83.3980°W)
Time: 17:10:45
(UTC-04:00)
Language:

ISS - Orbit

View from above orbital plane
View from above orbital plane
View from above satellite
View from above satellite

Ground track
Ground track

The orbit data is extracted from the following two-line orbital elements,

1 25544U 98067A   16210.59822142  .00000812  00000-0  11901-4 0  9990
2 25544  51.6406 211.4156 0001780  85.8307 274.3426 15.54888439 11433
Epoch (UTC): 28 July 2016 14:21:26
Eccentricity: 0.0001780
inclination: 51.6406°
perigee height: 401 km
apogee height: 403 km
right ascension of ascending node: 211.4156°
argument of perigee: 85.8307°
revolutions per day: 15.54888439
mean anomaly at epoch: 274.3426°
orbit number at epoch: 1143

The dashed part of the orbit path shows where the satellite is in the earth's shadow,  

DLR